Year,Month,Day,Hour,Minute,Value (Times are PST for temperature in C)
2006,06,27,00,00,22.00
2006,06,27,00,01,21.90
2006,06,27,00,02,21.90
2006,06,27,00,03,21.90
2006,06,27,00,04,21.90
2006,06,27,00,05,21.90
2006,06,27,00,06,21.90
2006,06,27,00,07,21.90
2006,06,27,00,08,21.90
2006,06,27,00,09,21.90
2006,06,27,00,10,21.90
2006,06,27,00,11,21.80
2006,06,27,00,12,21.70
2006,06,27,00,13,21.70
2006,06,27,00,14,21.60
2006,06,27,00,15,21.60
2006,06,27,00,16,21.60
2006,06,27,00,17,21.50
2006,06,27,00,18,21.40
2006,06,27,00,19,21.30
2006,06,27,00,20,21.30
2006,06,27,00,21,21.30
2006,06,27,00,22,21.20
2006,06,27,00,23,21.20
2006,06,27,00,24,21.10
2006,06,27,00,25,21.00
2006,06,27,00,26,21.00
2006,06,27,00,27,20.90
2006,06,27,00,28,20.90
2006,06,27,00,29,20.80
2006,06,27,00,30,20.80
2006,06,27,00,31,20.80
2006,06,27,00,32,20.80
2006,06,27,00,33,20.90
2006,06,27,00,34,20.90
2006,06,27,00,35,21.00
2006,06,27,00,36,21.10
2006,06,27,00,37,21.10
2006,06,27,00,38,21.20
2006,06,27,00,39,21.30
2006,06,27,00,40,21.30
2006,06,27,00,41,21.20
2006,06,27,00,42,21.20
2006,06,27,00,43,21.20
2006,06,27,00,44,21.20
2006,06,27,00,45,21.20
2006,06,27,00,46,21.20
2006,06,27,00,47,21.20
2006,06,27,00,48,21.10
2006,06,27,00,49,21.00
2006,06,27,00,50,20.90
2006,06,27,00,51,20.90
2006,06,27,00,52,20.80
2006,06,27,00,53,20.80
2006,06,27,00,54,20.70
2006,06,27,00,55,20.70
2006,06,27,00,56,20.70
2006,06,27,00,57,20.60
2006,06,27,00,58,20.60
2006,06,27,00,59,20.60
2006,06,27,01,00,20.60
2006,06,27,01,01,20.50
2006,06,27,01,02,20.30
2006,06,27,01,03,20.20
2006,06,27,01,04,20.00
2006,06,27,01,05,19.90
2006,06,27,01,06,19.80
2006,06,27,01,07,19.60
2006,06,27,01,08,19.50
2006,06,27,01,09,19.50
2006,06,27,01,10,19.50
2006,06,27,01,11,19.40
2006,06,27,01,12,19.20
2006,06,27,01,13,18.90
2006,06,27,01,14,18.70
2006,06,27,01,15,18.60
2006,06,27,01,16,18.30
2006,06,27,01,17,18.20
2006,06,27,01,18,18.00
2006,06,27,01,19,17.90
2006,06,27,01,20,17.90
2006,06,27,01,21,17.90
2006,06,27,01,22,17.90
2006,06,27,01,23,18.00
2006,06,27,01,24,17.90
2006,06,27,01,25,17.80
2006,06,27,01,26,17.70
2006,06,27,01,27,17.60
2006,06,27,01,28,17.50
2006,06,27,01,29,17.40
2006,06,27,01,30,17.30
2006,06,27,01,31,17.10
2006,06,27,01,32,17.00
2006,06,27,01,33,16.90
2006,06,27,01,34,16.80
2006,06,27,01,35,16.70
2006,06,27,01,36,16.60
2006,06,27,01,37,16.50
2006,06,27,01,38,16.40
2006,06,27,01,39,16.40
2006,06,27,01,40,16.30
2006,06,27,01,41,16.30
2006,06,27,01,42,16.20
2006,06,27,01,43,16.20
2006,06,27,01,44,16.10
2006,06,27,01,45,16.10
2006,06,27,01,46,16.10
2006,06,27,01,47,16.00
2006,06,27,01,48,15.90
2006,06,27,01,49,15.80
2006,06,27,01,50,15.80
2006,06,27,01,51,15.70
2006,06,27,01,52,15.70
2006,06,27,01,53,15.60
2006,06,27,01,54,15.60
2006,06,27,01,55,15.60
2006,06,27,01,56,15.50
2006,06,27,01,57,15.50
2006,06,27,01,58,15.50
2006,06,27,01,59,15.50
2006,06,27,02,00,15.40
2006,06,27,02,01,15.40
2006,06,27,02,02,15.40
2006,06,27,02,03,15.40
2006,06,27,02,04,15.40
2006,06,27,02,05,15.40
2006,06,27,02,06,15.40
2006,06,27,02,07,15.30
2006,06,27,02,08,15.30
2006,06,27,02,09,15.30
2006,06,27,02,10,15.20
2006,06,27,02,11,15.20
2006,06,27,02,12,15.20
2006,06,27,02,13,15.20
2006,06,27,02,14,15.20
2006,06,27,02,15,15.20
2006,06,27,02,16,15.20
2006,06,27,02,17,15.20
2006,06,27,02,18,15.20
2006,06,27,02,19,15.20
2006,06,27,02,20,15.20
2006,06,27,02,21,15.20
2006,06,27,02,22,15.20
2006,06,27,02,23,15.10
2006,06,27,02,24,15.10
2006,06,27,02,25,15.10
2006,06,27,02,26,15.10
2006,06,27,02,27,15.00
2006,06,27,02,28,15.00
2006,06,27,02,29,15.00
2006,06,27,02,30,15.00
2006,06,27,02,31,14.90
2006,06,27,02,32,14.90
2006,06,27,02,33,14.80
2006,06,27,02,34,14.80
2006,06,27,02,35,14.80
2006,06,27,02,36,14.80
2006,06,27,02,37,14.80
2006,06,27,02,38,14.70
2006,06,27,02,39,14.70
2006,06,27,02,40,14.70
2006,06,27,02,41,14.60
2006,06,27,02,42,14.60
2006,06,27,02,43,14.60
2006,06,27,02,44,14.60
2006,06,27,02,45,14.60
2006,06,27,02,46,14.60
2006,06,27,02,47,14.60
2006,06,27,02,48,14.60
2006,06,27,02,49,14.50
2006,06,27,02,50,14.50
2006,06,27,02,51,14.50
2006,06,27,02,52,14.40
2006,06,27,02,53,14.40
2006,06,27,02,54,14.40
2006,06,27,02,55,14.40
2006,06,27,02,56,14.40
2006,06,27,02,57,14.30
2006,06,27,02,58,14.30
2006,06,27,02,59,14.20
2006,06,27,03,00,14.20
2006,06,27,03,01,14.20
2006,06,27,03,02,14.30
2006,06,27,03,03,14.30
2006,06,27,03,04,14.40
2006,06,27,03,05,14.50
2006,06,27,03,06,14.60
2006,06,27,03,07,14.70
2006,06,27,03,08,14.80
2006,06,27,03,09,14.80
2006,06,27,03,10,14.80
2006,06,27,03,11,14.80
2006,06,27,03,12,14.80
2006,06,27,03,13,14.80
2006,06,27,03,14,14.80
2006,06,27,03,15,14.80
2006,06,27,03,16,14.80
2006,06,27,03,17,14.90
2006,06,27,03,18,14.90
2006,06,27,03,19,15.00
2006,06,27,03,20,15.00
2006,06,27,03,21,15.10
2006,06,27,03,22,15.10
2006,06,27,03,23,15.10
2006,06,27,03,24,15.10
2006,06,27,03,25,15.00
2006,06,27,03,26,14.90
2006,06,27,03,27,14.70
2006,06,27,03,28,14.60
2006,06,27,03,29,14.50
2006,06,27,03,30,14.40
2006,06,27,03,31,14.20
2006,06,27,03,32,14.20
2006,06,27,03,33,14.10
2006,06,27,03,34,14.00
2006,06,27,03,35,13.90
2006,06,27,03,36,13.80
2006,06,27,03,37,13.80
2006,06,27,03,38,13.70
2006,06,27,03,39,13.70
2006,06,27,03,40,13.70
2006,06,27,03,41,13.60
2006,06,27,03,42,13.50
2006,06,27,03,43,13.50
2006,06,27,03,44,13.40
2006,06,27,03,45,13.30
2006,06,27,03,46,13.30
2006,06,27,03,47,13.30
2006,06,27,03,48,13.20
2006,06,27,03,49,13.10
2006,06,27,03,50,13.10
2006,06,27,03,51,13.00
2006,06,27,03,52,13.00
2006,06,27,03,53,13.00
2006,06,27,03,54,13.00
2006,06,27,03,55,13.00
2006,06,27,03,56,13.00
2006,06,27,03,57,13.00
2006,06,27,03,58,12.90
2006,06,27,03,59,12.90
2006,06,27,04,00,12.80
2006,06,27,04,01,12.80
2006,06,27,04,02,12.80
2006,06,27,04,03,12.80
2006,06,27,04,04,12.80
2006,06,27,04,05,12.90
2006,06,27,04,06,13.00
2006,06,27,04,07,13.00
2006,06,27,04,08,13.00
2006,06,27,04,09,13.10
2006,06,27,04,10,13.10
2006,06,27,04,11,13.00
2006,06,27,04,12,13.00
2006,06,27,04,13,13.00
2006,06,27,04,14,13.00
2006,06,27,04,15,13.00
2006,06,27,04,16,13.00
2006,06,27,04,17,13.00
2006,06,27,04,18,13.00
2006,06,27,04,19,13.00
2006,06,27,04,20,13.00
2006,06,27,04,21,13.00
2006,06,27,04,22,13.00
2006,06,27,04,23,13.00
2006,06,27,04,24,12.90
2006,06,27,04,25,12.90
2006,06,27,04,26,12.80
2006,06,27,04,27,12.80
2006,06,27,04,28,12.70
2006,06,27,04,29,12.60
2006,06,27,04,30,12.60
2006,06,27,04,31,12.50
2006,06,27,04,32,12.50
2006,06,27,04,33,12.40
2006,06,27,04,34,12.40
2006,06,27,04,35,12.40
2006,06,27,04,36,12.40
2006,06,27,04,37,12.40
2006,06,27,04,38,12.40
2006,06,27,04,39,12.30
2006,06,27,04,40,12.30
2006,06,27,04,41,12.30
2006,06,27,04,42,12.30
2006,06,27,04,43,12.30
2006,06,27,04,44,12.30
2006,06,27,04,45,12.30
2006,06,27,04,46,12.30
2006,06,27,04,47,12.30
2006,06,27,04,48,12.30
2006,06,27,04,49,12.30
2006,06,27,04,50,12.30
2006,06,27,04,51,12.30
2006,06,27,04,52,12.30
2006,06,27,04,53,12.30
2006,06,27,04,54,12.30
2006,06,27,04,55,12.30
2006,06,27,04,56,12.30
2006,06,27,04,57,12.30
2006,06,27,04,58,12.30
2006,06,27,04,59,12.30
2006,06,27,05,00,12.30
2006,06,27,05,01,12.30
2006,06,27,05,02,12.40
2006,06,27,05,03,12.40
2006,06,27,05,04,12.50
2006,06,27,05,05,12.50
2006,06,27,05,06,12.50
2006,06,27,05,07,12.60
2006,06,27,05,08,12.60
2006,06,27,05,09,12.70
2006,06,27,05,10,12.70
2006,06,27,05,11,12.70
2006,06,27,05,12,12.70
2006,06,27,05,13,12.70
2006,06,27,05,14,12.70
2006,06,27,05,15,12.70
2006,06,27,05,16,12.70
2006,06,27,05,17,12.70
2006,06,27,05,18,12.80
2006,06,27,05,19,12.80
2006,06,27,05,20,12.80
2006,06,27,05,21,12.80
2006,06,27,05,22,12.80
2006,06,27,05,23,12.80
2006,06,27,05,24,12.80
2006,06,27,05,25,12.80
2006,06,27,05,26,12.80
2006,06,27,05,27,12.90
2006,06,27,05,28,13.00
2006,06,27,05,29,13.00
2006,06,27,05,30,13.00
2006,06,27,05,31,13.10
2006,06,27,05,32,13.10
2006,06,27,05,33,13.10
2006,06,27,05,34,13.10
2006,06,27,05,35,13.20
2006,06,27,05,36,13.20
2006,06,27,05,37,13.30
2006,06,27,05,38,13.30
2006,06,27,05,39,13.30
2006,06,27,05,40,13.30
2006,06,27,05,41,13.30
2006,06,27,05,42,13.30
2006,06,27,05,43,13.30
2006,06,27,05,44,13.40
2006,06,27,05,45,13.50
2006,06,27,05,46,13.60
2006,06,27,05,47,13.70
2006,06,27,05,48,13.80
2006,06,27,05,49,13.90
2006,06,27,05,50,13.90
2006,06,27,05,51,14.00
2006,06,27,05,52,14.10
2006,06,27,05,53,14.20
2006,06,27,05,54,14.20
2006,06,27,05,55,14.20
2006,06,27,05,56,14.20
2006,06,27,05,57,14.20
2006,06,27,05,58,14.20
2006,06,27,05,59,14.20
2006,06,27,06,00,14.10
2006,06,27,06,01,14.00
2006,06,27,06,02,14.00
2006,06,27,06,03,14.00
2006,06,27,06,04,14.00
2006,06,27,06,05,14.00
2006,06,27,06,06,14.00
2006,06,27,06,07,14.00
2006,06,27,06,08,14.10
2006,06,27,06,09,14.10
2006,06,27,06,10,14.10
2006,06,27,06,11,14.10
2006,06,27,06,12,14.20
2006,06,27,06,13,14.20
2006,06,27,06,14,14.20
2006,06,27,06,15,14.20
2006,06,27,06,16,14.20
2006,06,27,06,17,14.30
2006,06,27,06,18,14.30
2006,06,27,06,19,14.30
2006,06,27,06,20,14.20
2006,06,27,06,21,14.20
2006,06,27,06,22,14.20
2006,06,27,06,23,14.20
2006,06,27,06,24,14.20
2006,06,27,06,25,14.10
2006,06,27,06,26,14.10
2006,06,27,06,27,14.10
2006,06,27,06,28,14.10
2006,06,27,06,29,14.20
2006,06,27,06,30,14.20
2006,06,27,06,31,14.20
2006,06,27,06,32,14.20
2006,06,27,06,33,14.20
2006,06,27,06,34,14.20
2006,06,27,06,35,14.20
2006,06,27,06,36,14.20
2006,06,27,06,37,14.20
2006,06,27,06,38,14.30
2006,06,27,06,39,14.40
2006,06,27,06,40,14.50
2006,06,27,06,41,14.60
2006,06,27,06,42,14.60
2006,06,27,06,43,14.60
2006,06,27,06,44,14.50
2006,06,27,06,45,14.50
2006,06,27,06,46,14.40
2006,06,27,06,47,14.50
2006,06,27,06,48,14.50
2006,06,27,06,49,14.60
2006,06,27,06,50,14.60
2006,06,27,06,51,14.60
2006,06,27,06,52,14.60
2006,06,27,06,53,14.50
2006,06,27,06,54,14.50
2006,06,27,06,55,14.50
2006,06,27,06,56,14.50
2006,06,27,06,57,14.50
2006,06,27,06,58,14.50
2006,06,27,06,59,14.50
2006,06,27,07,00,14.60
2006,06,27,07,01,14.60
2006,06,27,07,02,14.60
2006,06,27,07,03,14.70
2006,06,27,07,04,14.80
2006,06,27,07,05,14.90
2006,06,27,07,06,15.10
2006,06,27,07,07,15.20
2006,06,27,07,08,15.30
2006,06,27,07,09,15.50
2006,06,27,07,10,15.50
2006,06,27,07,11,15.60
2006,06,27,07,12,15.60
2006,06,27,07,13,15.70
2006,06,27,07,14,15.70
2006,06,27,07,15,15.60
2006,06,27,07,16,15.50
2006,06,27,07,17,15.50
2006,06,27,07,18,15.50
2006,06,27,07,19,15.40
2006,06,27,07,20,15.50
2006,06,27,07,21,15.50
2006,06,27,07,22,15.50
2006,06,27,07,23,15.40
2006,06,27,07,24,15.40
2006,06,27,07,25,15.30
2006,06,27,07,26,15.40
2006,06,27,07,27,15.40
2006,06,27,07,28,15.40
2006,06,27,07,29,15.40
2006,06,27,07,30,15.40
2006,06,27,07,31,15.30
2006,06,27,07,32,15.30
2006,06,27,07,33,15.30
2006,06,27,07,34,15.30
2006,06,27,07,35,15.30
2006,06,27,07,36,15.30
2006,06,27,07,37,15.30
2006,06,27,07,38,15.30
2006,06,27,07,39,15.30
2006,06,27,07,40,15.30
2006,06,27,07,41,15.40
2006,06,27,07,42,15.50
2006,06,27,07,43,15.60
2006,06,27,07,44,15.80
2006,06,27,07,45,16.00
2006,06,27,07,46,16.10
2006,06,27,07,47,16.20
2006,06,27,07,48,16.30
2006,06,27,07,49,16.40
2006,06,27,07,50,16.40
2006,06,27,07,51,16.40
2006,06,27,07,52,16.50
2006,06,27,07,53,16.60
2006,06,27,07,54,16.60
2006,06,27,07,55,16.60
2006,06,27,07,56,16.60
2006,06,27,07,57,16.60
2006,06,27,07,58,16.70
2006,06,27,07,59,16.60
2006,06,27,08,00,16.40
2006,06,27,08,01,16.40
2006,06,27,08,02,16.40
2006,06,27,08,03,16.40
2006,06,27,08,04,16.40
2006,06,27,08,05,16.30
2006,06,27,08,06,16.30
2006,06,27,08,07,16.30
2006,06,27,08,08,16.30
2006,06,27,08,09,16.30
2006,06,27,08,10,16.30
2006,06,27,08,11,16.50
2006,06,27,08,12,16.70
2006,06,27,08,13,16.80
2006,06,27,08,14,16.80
2006,06,27,08,15,16.80
2006,06,27,08,16,16.70
2006,06,27,08,17,16.80
2006,06,27,08,18,16.70
2006,06,27,08,19,16.70
2006,06,27,08,20,16.70
2006,06,27,08,21,16.60
2006,06,27,08,22,16.60
2006,06,27,08,23,16.60
2006,06,27,08,24,16.70
2006,06,27,08,25,16.70
2006,06,27,08,26,16.80
2006,06,27,08,27,17.10
2006,06,27,08,28,17.20
2006,06,27,08,29,17.20
2006,06,27,08,30,17.30
2006,06,27,08,31,17.30
2006,06,27,08,32,17.30
2006,06,27,08,33,17.30
2006,06,27,08,34,17.50
2006,06,27,08,35,17.60
2006,06,27,08,36,17.80
2006,06,27,08,37,18.00
2006,06,27,08,38,18.00
2006,06,27,08,39,17.90
2006,06,27,08,40,17.90
2006,06,27,08,41,18.10
2006,06,27,08,42,18.20
2006,06,27,08,43,18.30
2006,06,27,08,44,18.50
2006,06,27,08,45,18.50
2006,06,27,08,46,18.50
2006,06,27,08,47,18.50
2006,06,27,08,48,18.40
2006,06,27,08,49,18.40
2006,06,27,08,50,18.40
2006,06,27,08,51,18.50
2006,06,27,08,52,18.50
2006,06,27,08,53,18.50
2006,06,27,08,54,18.80
2006,06,27,08,55,19.00
2006,06,27,08,56,18.80
2006,06,27,08,57,18.70
2006,06,27,08,58,18.50
2006,06,27,08,59,18.30
2006,06,27,09,00,18.10
2006,06,27,09,01,18.00
2006,06,27,09,02,18.10
2006,06,27,09,03,18.20
2006,06,27,09,04,18.30
2006,06,27,09,05,18.30
2006,06,27,09,06,18.20
2006,06,27,09,07,18.30
2006,06,27,09,08,18.30
2006,06,27,09,09,18.30
2006,06,27,09,10,18.20
2006,06,27,09,11,18.20
2006,06,27,09,12,18.30
2006,06,27,09,13,18.40
2006,06,27,09,14,18.40
2006,06,27,09,15,18.40
2006,06,27,09,16,18.40
2006,06,27,09,17,18.40
2006,06,27,09,18,18.40
2006,06,27,09,19,18.50
2006,06,27,09,20,18.60
2006,06,27,09,21,18.70
2006,06,27,09,22,18.80
2006,06,27,09,23,18.90
2006,06,27,09,24,19.00
2006,06,27,09,25,19.10
2006,06,27,09,26,19.10
2006,06,27,09,27,19.10
2006,06,27,09,28,19.10
2006,06,27,09,29,19.10
2006,06,27,09,30,19.10
2006,06,27,09,31,19.10
2006,06,27,09,32,19.10
2006,06,27,09,33,19.00
2006,06,27,09,34,18.90
2006,06,27,09,35,18.90
2006,06,27,09,36,18.90
2006,06,27,09,37,18.90
2006,06,27,09,38,18.90
2006,06,27,09,39,18.90
2006,06,27,09,40,18.90
2006,06,27,09,41,19.10
2006,06,27,09,42,19.10
2006,06,27,09,43,19.10
2006,06,27,09,44,19.10
2006,06,27,09,45,19.10
2006,06,27,09,46,18.90
2006,06,27,09,47,18.90
2006,06,27,09,48,18.90
2006,06,27,09,49,19.00
2006,06,27,09,50,19.10
2006,06,27,09,51,19.00
2006,06,27,09,52,18.90
2006,06,27,09,53,18.70
2006,06,27,09,54,18.60
2006,06,27,09,55,18.50
2006,06,27,09,56,18.40
2006,06,27,09,57,18.30
2006,06,27,09,58,18.10
2006,06,27,09,59,17.90
2006,06,27,10,00,17.90
2006,06,27,10,01,17.90
2006,06,27,10,02,18.00
2006,06,27,10,03,18.00
2006,06,27,10,04,17.90
2006,06,27,10,05,17.90
2006,06,27,10,06,17.70
2006,06,27,10,07,17.70
2006,06,27,10,08,17.70
2006,06,27,10,09,17.70
2006,06,27,10,10,17.90
2006,06,27,10,11,17.90
2006,06,27,10,12,17.80
2006,06,27,10,13,17.80
2006,06,27,10,14,17.80
2006,06,27,10,15,17.80
2006,06,27,10,16,17.80
2006,06,27,10,17,17.90
2006,06,27,10,18,18.00
2006,06,27,10,19,18.10
2006,06,27,10,20,18.30
2006,06,27,10,21,18.60
2006,06,27,10,22,18.80
2006,06,27,10,23,18.80
2006,06,27,10,24,18.90
2006,06,27,10,25,18.70
2006,06,27,10,26,18.60
2006,06,27,10,27,18.50
2006,06,27,10,28,18.60
2006,06,27,10,29,18.80
2006,06,27,10,30,18.90
2006,06,27,10,31,18.90
2006,06,27,10,32,18.90
2006,06,27,10,33,19.00
2006,06,27,10,34,19.10
2006,06,27,10,35,19.10
2006,06,27,10,36,19.10
2006,06,27,10,37,19.00
2006,06,27,10,38,18.90
2006,06,27,10,39,18.90
2006,06,27,10,40,18.90
2006,06,27,10,41,18.90
2006,06,27,10,42,18.90
2006,06,27,10,43,18.90
2006,06,27,10,44,19.00
2006,06,27,10,45,19.10
2006,06,27,10,46,19.10
2006,06,27,10,47,19.00
2006,06,27,10,48,18.90
2006,06,27,10,49,18.80
2006,06,27,10,50,18.90
2006,06,27,10,51,18.90
2006,06,27,10,52,19.10
2006,06,27,10,53,19.20
2006,06,27,10,54,19.10
2006,06,27,10,55,19.10
2006,06,27,10,56,18.80
2006,06,27,10,57,18.70
2006,06,27,10,58,18.70
2006,06,27,10,59,18.80
2006,06,27,11,00,18.70
2006,06,27,11,01,18.60
2006,06,27,11,02,18.60
2006,06,27,11,03,18.60
2006,06,27,11,04,18.60
2006,06,27,11,05,18.60
2006,06,27,11,06,18.50
2006,06,27,11,07,18.50
2006,06,27,11,08,18.60
2006,06,27,11,09,18.70
2006,06,27,11,10,18.80
2006,06,27,11,11,19.00
2006,06,27,11,12,19.10
2006,06,27,11,13,18.90
2006,06,27,11,14,18.70
2006,06,27,11,15,18.70
2006,06,27,11,16,18.60
2006,06,27,11,17,18.60
2006,06,27,11,18,18.40
2006,06,27,11,19,18.40
2006,06,27,11,20,18.30
2006,06,27,11,21,18.30
2006,06,27,11,22,18.30
2006,06,27,11,23,18.30
2006,06,27,11,24,18.40
2006,06,27,11,25,18.50
2006,06,27,11,26,18.70
2006,06,27,11,27,18.90
2006,06,27,11,28,18.90
2006,06,27,11,29,18.90
2006,06,27,11,30,18.80
2006,06,27,11,31,18.80
2006,06,27,11,32,18.80
2006,06,27,11,33,18.90
2006,06,27,11,34,18.80
2006,06,27,11,35,18.80
2006,06,27,11,36,18.80
2006,06,27,11,37,18.70
2006,06,27,11,38,18.70
2006,06,27,11,39,18.70
2006,06,27,11,40,18.60
2006,06,27,11,41,18.50
2006,06,27,11,42,18.60
2006,06,27,11,43,18.70
2006,06,27,11,44,18.70
2006,06,27,11,45,18.70
2006,06,27,11,46,18.80
2006,06,27,11,47,18.80
2006,06,27,11,48,18.90
2006,06,27,11,49,18.90
2006,06,27,11,50,18.90
2006,06,27,11,51,18.90
2006,06,27,11,52,18.80
2006,06,27,11,53,18.80
2006,06,27,11,54,18.70
2006,06,27,11,55,18.60
2006,06,27,11,56,18.60
2006,06,27,11,57,18.70
2006,06,27,11,58,18.80
2006,06,27,11,59,19.00
2006,06,27,12,00,19.10
2006,06,27,12,01,19.20
2006,06,27,12,02,19.20
2006,06,27,12,03,19.10
2006,06,27,12,04,19.20
2006,06,27,12,05,19.10
2006,06,27,12,06,19.10
2006,06,27,12,07,19.10
2006,06,27,12,08,19.10
2006,06,27,12,09,19.20
2006,06,27,12,10,19.40
2006,06,27,12,11,19.50
2006,06,27,12,12,19.60
2006,06,27,12,13,19.60
2006,06,27,12,14,19.70
2006,06,27,12,15,19.70
2006,06,27,12,16,19.60
2006,06,27,12,17,19.60
2006,06,27,12,18,19.60
2006,06,27,12,19,19.60
2006,06,27,12,20,19.50
2006,06,27,12,21,19.30
2006,06,27,12,22,19.30
2006,06,27,12,23,19.40
2006,06,27,12,24,19.50
2006,06,27,12,25,19.50
2006,06,27,12,26,19.50
2006,06,27,12,27,19.30
2006,06,27,12,28,19.20
2006,06,27,12,29,19.20
2006,06,27,12,30,19.30
2006,06,27,12,31,19.30
2006,06,27,12,32,19.40
2006,06,27,12,33,19.40
2006,06,27,12,34,19.30
2006,06,27,12,35,19.20
2006,06,27,12,36,19.20
2006,06,27,12,37,19.40
2006,06,27,12,38,19.50
2006,06,27,12,39,19.50
2006,06,27,12,40,19.40
2006,06,27,12,41,19.40
2006,06,27,12,42,19.60
2006,06,27,12,43,19.90
2006,06,27,12,44,19.90
2006,06,27,12,45,19.90
2006,06,27,12,46,19.80
2006,06,27,12,47,19.60
2006,06,27,12,48,19.70
2006,06,27,12,49,19.80
2006,06,27,12,50,19.90
2006,06,27,12,51,19.90
2006,06,27,12,52,19.90
2006,06,27,12,53,19.90
2006,06,27,12,54,19.90
2006,06,27,12,55,20.10
2006,06,27,12,56,20.20
2006,06,27,12,57,20.30
2006,06,27,12,58,20.40
2006,06,27,12,59,20.40
2006,06,27,13,00,20.40
2006,06,27,13,01,20.60
2006,06,27,13,02,20.70
2006,06,27,13,03,20.70
2006,06,27,13,04,20.70
2006,06,27,13,05,20.70
2006,06,27,13,06,20.60
2006,06,27,13,07,20.50
2006,06,27,13,08,20.50
2006,06,27,13,09,20.60
2006,06,27,13,10,20.70
2006,06,27,13,11,20.70
2006,06,27,13,12,20.60
2006,06,27,13,13,20.50
2006,06,27,13,14,20.60
2006,06,27,13,15,20.70
2006,06,27,13,16,20.70
2006,06,27,13,17,20.60
2006,06,27,13,18,20.50
2006,06,27,13,19,20.50
2006,06,27,13,20,20.50
2006,06,27,13,21,20.60
2006,06,27,13,22,20.60
2006,06,27,13,23,20.80
2006,06,27,13,24,20.90
2006,06,27,13,25,21.10
2006,06,27,13,26,21.30
2006,06,27,13,27,21.50
2006,06,27,13,28,21.60
2006,06,27,13,29,21.70
2006,06,27,13,30,21.70
2006,06,27,13,31,21.60
2006,06,27,13,32,21.60
2006,06,27,13,33,21.50
2006,06,27,13,34,21.40
2006,06,27,13,35,21.40
2006,06,27,13,36,21.20
2006,06,27,13,37,21.00
2006,06,27,13,38,21.00
2006,06,27,13,39,20.90
2006,06,27,13,40,20.80
2006,06,27,13,41,20.80
2006,06,27,13,42,20.90
2006,06,27,13,43,21.00
2006,06,27,13,44,21.00
2006,06,27,13,45,21.00
2006,06,27,13,46,21.00
2006,06,27,13,47,21.20
2006,06,27,13,48,21.30
2006,06,27,13,49,21.20
2006,06,27,13,50,20.90
2006,06,27,13,51,20.70
2006,06,27,13,52,20.60
2006,06,27,13,53,20.70
2006,06,27,13,54,20.70
2006,06,27,13,55,20.90
2006,06,27,13,56,21.00
2006,06,27,13,57,21.10
2006,06,27,13,58,21.10
2006,06,27,13,59,21.10
2006,06,27,14,00,21.20
2006,06,27,14,01,21.20
2006,06,27,14,02,21.20
2006,06,27,14,03,21.20
2006,06,27,14,04,21.30
2006,06,27,14,05,21.30
2006,06,27,14,06,21.30
2006,06,27,14,07,21.30
2006,06,27,14,08,21.40
2006,06,27,14,09,21.30
2006,06,27,14,10,21.50
2006,06,27,14,11,21.60
2006,06,27,14,12,21.70
2006,06,27,14,13,21.80
2006,06,27,14,14,21.90
2006,06,27,14,15,21.90
2006,06,27,14,16,22.00
2006,06,27,14,17,22.00
2006,06,27,14,18,22.10
2006,06,27,14,19,22.20
2006,06,27,14,20,22.10
2006,06,27,14,21,22.00
2006,06,27,14,22,22.00
2006,06,27,14,23,22.10
2006,06,27,14,24,22.10
2006,06,27,14,25,22.20
2006,06,27,14,26,22.30
2006,06,27,14,27,22.50
2006,06,27,14,28,22.40
2006,06,27,14,29,22.40
2006,06,27,14,30,22.40
2006,06,27,14,31,22.40
2006,06,27,14,32,22.30
2006,06,27,14,33,22.20
2006,06,27,14,34,22.20
2006,06,27,14,35,22.20
2006,06,27,14,36,22.10
2006,06,27,14,37,22.10
2006,06,27,14,38,22.10
2006,06,27,14,39,22.20
2006,06,27,14,40,22.40
2006,06,27,14,41,22.60
2006,06,27,14,42,22.80
2006,06,27,14,43,22.90
2006,06,27,14,44,22.90
2006,06,27,14,45,22.90
2006,06,27,14,46,22.90
2006,06,27,14,47,23.00
2006,06,27,14,48,23.10
2006,06,27,14,49,23.20
2006,06,27,14,50,23.10
2006,06,27,14,51,23.10
2006,06,27,14,52,23.10
2006,06,27,14,53,23.30
2006,06,27,14,54,23.30
2006,06,27,14,55,22.80
2006,06,27,14,56,21.90
2006,06,27,14,57,21.00
2006,06,27,14,58,20.50
2006,06,27,14,59,20.20
2006,06,27,15,00,20.20
2006,06,27,15,01,20.20
2006,06,27,15,02,20.30
2006,06,27,15,03,20.40
2006,06,27,15,04,20.50
2006,06,27,15,05,20.60
2006,06,27,15,06,20.70
2006,06,27,15,07,20.90
2006,06,27,15,08,20.90
2006,06,27,15,09,21.00
2006,06,27,15,10,21.20
2006,06,27,15,11,21.40
2006,06,27,15,12,21.60
2006,06,27,15,13,21.70
2006,06,27,15,14,21.60
2006,06,27,15,15,21.60
2006,06,27,15,16,21.70
2006,06,27,15,17,21.80
2006,06,27,15,18,21.80
2006,06,27,15,19,21.80
2006,06,27,15,20,21.50
2006,06,27,15,21,21.30
2006,06,27,15,22,21.10
2006,06,27,15,23,20.90
2006,06,27,15,24,20.80
2006,06,27,15,25,20.90
2006,06,27,15,26,21.00
2006,06,27,15,27,21.10
2006,06,27,15,28,21.00
2006,06,27,15,29,20.90
2006,06,27,15,30,20.80
2006,06,27,15,31,20.70
2006,06,27,15,32,20.70
2006,06,27,15,33,20.70
2006,06,27,15,34,20.80
2006,06,27,15,35,20.90
2006,06,27,15,36,20.90
2006,06,27,15,37,20.90
2006,06,27,15,38,20.90
2006,06,27,15,39,21.00
2006,06,27,15,40,21.00
2006,06,27,15,41,21.10
2006,06,27,15,42,21.20
2006,06,27,15,43,21.50
2006,06,27,15,44,21.60
2006,06,27,15,45,21.70
2006,06,27,15,46,21.80
2006,06,27,15,47,21.80
2006,06,27,15,48,21.70
2006,06,27,15,49,21.70
2006,06,27,15,50,21.70
2006,06,27,15,51,21.70
2006,06,27,15,52,21.70
2006,06,27,15,53,21.60
2006,06,27,15,54,21.70
2006,06,27,15,55,21.80
2006,06,27,15,56,21.70
2006,06,27,15,57,21.70
2006,06,27,15,58,21.80
2006,06,27,15,59,21.80
2006,06,27,16,00,21.90
2006,06,27,16,01,22.00
2006,06,27,16,02,22.00
2006,06,27,16,03,22.10
2006,06,27,16,04,22.30
2006,06,27,16,05,22.60
2006,06,27,16,06,23.10
2006,06,27,16,07,23.60
2006,06,27,16,08,24.20
2006,06,27,16,09,24.60
2006,06,27,16,10,25.20
2006,06,27,16,11,25.60
2006,06,27,16,12,26.00
2006,06,27,16,13,26.30
2006,06,27,16,14,26.30
2006,06,27,16,15,26.40
2006,06,27,16,16,26.60
2006,06,27,16,17,26.70
2006,06,27,16,18,26.80
2006,06,27,16,19,27.00
2006,06,27,16,20,27.10
2006,06,27,16,21,27.20
2006,06,27,16,22,27.20
2006,06,27,16,23,27.20
2006,06,27,16,24,27.20
2006,06,27,16,25,27.20
2006,06,27,16,26,27.10
2006,06,27,16,27,26.90
2006,06,27,16,28,26.80
2006,06,27,16,29,26.60
2006,06,27,16,30,26.40
2006,06,27,16,31,26.20
2006,06,27,16,32,26.20
2006,06,27,16,33,26.20
2006,06,27,16,34,26.10
2006,06,27,16,35,26.00
2006,06,27,16,36,25.90
2006,06,27,16,37,25.90
2006,06,27,16,38,26.00
2006,06,27,16,39,26.10
2006,06,27,16,40,26.20
2006,06,27,16,41,26.30
2006,06,27,16,42,26.20
2006,06,27,16,43,26.30
2006,06,27,16,44,26.30
2006,06,27,16,45,26.30
2006,06,27,16,46,26.40
2006,06,27,16,47,26.40
2006,06,27,16,48,26.40
2006,06,27,16,49,26.40
2006,06,27,16,50,26.40
2006,06,27,16,51,26.40
2006,06,27,16,52,26.40
2006,06,27,16,53,26.50
2006,06,27,16,54,26.60
2006,06,27,16,55,26.70
2006,06,27,16,56,26.80
2006,06,27,16,57,26.80
2006,06,27,16,58,26.70
2006,06,27,16,59,26.60
2006,06,27,17,00,26.40
2006,06,27,17,01,26.10
2006,06,27,17,02,26.00
2006,06,27,17,03,25.90
2006,06,27,17,04,25.90
2006,06,27,17,05,25.80
2006,06,27,17,06,25.80
2006,06,27,17,07,25.80
2006,06,27,17,08,25.80
2006,06,27,17,09,25.90
2006,06,27,17,10,26.00
2006,06,27,17,11,26.00
2006,06,27,17,12,25.90
2006,06,27,17,13,25.90
2006,06,27,17,14,25.90
2006,06,27,17,15,25.80
2006,06,27,17,16,25.80
2006,06,27,17,17,25.80
2006,06,27,17,18,25.90
2006,06,27,17,19,26.00